Weather reports worldwide

Advertisment
Cardinham, United Kingdom (3823): temperature & dewpoint: 12.10.2018 18:00:00 - 18.10.2018 18:00:00 (BST)Cardinham, United Kingdom (3823): temperature -20cm & temperature -100cm: 12.10.2018 18:00:00 - 18.10.2018 18:00:00 (BST)Cardinham, United Kingdom (3823): wind speed & gusts: 12.10.2018 18:00:00 - 18.10.2018 18:00:00 (BST)Cardinham, United Kingdom (3823): wind direction: 12.10.2018 18:00:00 - 18.10.2018 18:00:00 (BST)Cardinham, United Kingdom (3823): reduced air pressure: 12.10.2018 18:00:00 - 18.10.2018 18:00:00 (BST)Cardinham, United Kingdom (3823): visibility: 12.10.2018 18:00:00 - 18.10.2018 18:00:00 (BST)Cardinham, United Kingdom (3823): precipitation: 12.10.2018 18:00:00 - 18.10.2018 18:00:00 (BST)
Date & Time tt [°C] td [°C] tt -20cm [°C] tt -100cm [°C] ff [km/h] ff [kn] fx [km/h] fx [kn] dd ppp [hPa] vv [km] rr [mm]
18.10.2018 18:00:00 - - - - - - - - - - - -
18.10.2018 17:00:00 14,1 9,4 - - 11 6 - - NE 1025,2 30 0,0
18.10.2018 16:00:00 15,2 10,3 - - 9 5 - - NE 1025,1 29 0,0
18.10.2018 15:00:00 15,4 10,0 - - 11 6 - - ENE 1025,3 28 0,0
18.10.2018 14:00:00 14,2 9,3 - - 11 6 - - ENE 1025,8 27 0,0
18.10.2018 13:00:00 14,0 10,0 - - 9 5 - - E 1026,3 23 0,0
18.10.2018 12:00:00 12,9 9,6 - - 15 8 - - E 1026,7 19 0,0
18.10.2018 11:00:00 11,2 8,7 - - 11 6 - - NE 1026,9 22 0,0
18.10.2018 10:00:00 10,5 7,7 14,4 14,4 16 9 - - ENE 1026,8 35 0,0
18.10.2018 09:00:00 10,3 7,7 - - 15 8 - - NE 1026,5 35 0,0
18.10.2018 08:00:00 10,3 8,4 - - 13 7 - - NE 1025,9 30 0,0
18.10.2018 07:00:00 10,5 8,8 - - 21 11 - - ENE 1025,3 20 0,0
18.10.2018 06:00:00 10,8 9,2 - - 16 9 - - NE 1025,0 18 0,0
18.10.2018 05:00:00 10,9 9,4 - - 13 7 - - ENE 1024,9 18 0,0
18.10.2018 04:00:00 11,2 9,5 - - 21 11 - - NE 1025,0 15 0,0
18.10.2018 03:00:00 11,3 9,8 - - 21 11 - - NE 1024,8 16 0,0
18.10.2018 02:00:00 11,3 10,1 - - 16 9 - - NNE 1024,9 19 0,0
18.10.2018 01:00:00 11,0 10,0 - - 13 7 - - NNE 1024,6 13 0,0
18.10.2018 00:00:00 10,8 10,0 - - 11 6 - - N 1024,6 14 0,0
17.10.2018 23:00:00 10,9 10,1 - - 11 6 - - NNE 1024,2 13 0,0
17.10.2018 22:00:00 10,7 9,9 - - 15 8 - - N 1023,7 11 0,0
17.10.2018 21:00:00 11,0 10,0 - - 15 8 - - N 1023,3 12 0,0
17.10.2018 20:00:00 11,2 10,2 - - 13 7 - - N 1022,5 11 0,0
17.10.2018 19:00:00 11,3 10,2 - - 11 6 - - N 1021,9 10 0,0
17.10.2018 18:00:00 12,1 10,1 - - 11 6 - - N 1021,1 12 0,0
17.10.2018 17:00:00 13,1 10,4 - - 13 7 - - N 1020,3 13 0,0
17.10.2018 16:00:00 13,9 11,0 - - 13 7 - - N 1019,8 12 0,0
17.10.2018 15:00:00 15,5 11,6 - - 15 8 - - N 1019,2 13 0,0
17.10.2018 14:00:00 15,2 10,5 - - 13 7 - - N 1019,3 15 0,0
17.10.2018 13:00:00 15,0 11,1 - - 11 6 - - N 1019,2 13 0,0
17.10.2018 12:00:00 13,6 11,2 - - 11 6 - - N 1019,1 12 0,0
17.10.2018 11:00:00 13,5 13,2 - - 11 6 - - NNW 1018,8 10 0,0
17.10.2018 10:00:00 11,6 11,6 14,2 14,4 5 3 - - N 1018,7 4,2 0,0
17.10.2018 09:00:00 10,8 10,7 - - 5 3 - - NNW 1018,1 6 0,0
17.10.2018 08:00:00 11,0 10,9 - - 5 3 - - NNW 1017,7 10 0,0
17.10.2018 07:00:00 11,0 10,9 - - 2 1 - - NE 1017,2 15 0,0
17.10.2018 06:00:00 11,0 11,0 - - 4 2 - - N 1016,7 7 0,0
17.10.2018 05:00:00 10,9 10,8 - - 4 2 - - N 1016,6 5 0,0
17.10.2018 04:00:00 11,0 10,9 - - 4 2 - - NNE 1016,5 17 0,0
17.10.2018 03:00:00 11,0 10,9 - - 4 2 - - N 1016,7 13 0,2
17.10.2018 02:00:00 11,1 11,0 - - 15 8 - - NW 1016,9 3,9 0,8
17.10.2018 01:00:00 12,6 12,5 - - 13 7 - - SSW 1016,6 2,6 0,4
17.10.2018 00:00:00 12,5 12,4 - - 15 8 - - SSW 1016,7 2,6 0,6
16.10.2018 23:00:00 12,3 12,2 - - 18 10 - - SSW 1016,6 4,2 0,2
16.10.2018 22:00:00 12,1 11,9 - - 16 9 - - S 1016,6 7 0,2
16.10.2018 21:00:00 11,8 11,2 - - 13 7 - - SSW 1016,6 4,5 0,0
16.10.2018 20:00:00 11,5 10,6 - - 11 6 - - S 1016,7 13 0,0
16.10.2018 19:00:00 11,3 10,6 - - 13 7 - - S 1016,4 20 0,0
16.10.2018 18:00:00 11,9 11,1 - - 15 8 - - S 1016,0 15 0,0
16.10.2018 17:00:00 12,6 11,4 - - 13 7 - - S 1015,9 22 0,0
16.10.2018 16:00:00 14,1 11,1 - - 16 9 - - SSW 1015,8 35 0,0
16.10.2018 15:00:00 12,3 11,4 - - 18 10 - - SW 1015,9 26 0,0
16.10.2018 14:00:00 11,7 11,2 - - 13 7 - - WSW 1015,9 6 0,0
16.10.2018 13:00:00 12,0 11,4 - - 18 10 - - WSW 1015,8 11 0,0
16.10.2018 12:00:00 11,8 11,1 - - 15 8 - - SW 1015,7 6 0,0
16.10.2018 11:00:00 11,9 11,6 - - 21 11 - - SW 1015,5 12 0,0
16.10.2018 10:00:00 11,8 11,5 14,4 14,5 9 5 - - S 1015,5 14 0,0
16.10.2018 09:00:00 11,3 11,3 - - 8 4 - - SW 1015,2 4,0 0,0
16.10.2018 08:00:00 11,1 11,0 - - 4 2 - - SW 1014,5 3,8 0,0
16.10.2018 07:00:00 10,9 10,8 - - 4 2 - - WNW 1014,1 3,6 0,0
16.10.2018 06:00:00 11,3 11,2 - - 11 6 - - WNW 1013,7 3,2 0,0
16.10.2018 05:00:00 11,5 11,3 - - 9 5 - - NW 1013,4 0,6 0,8
16.10.2018 04:00:00 11,7 11,4 - - 5 3 - - NW 1013,3 0,9 0,6
16.10.2018 03:00:00 11,6 11,3 - - 2 1 - - NNW 1013,5 1,6 0,2
16.10.2018 02:00:00 11,3 10,8 - - 9 5 - - NW 1013,4 3,6 0,0
16.10.2018 01:00:00 11,8 11,5 - - 5 3 - - ESE 1013,3 6 0,0
16.10.2018 00:00:00 11,2 10,7 - - 8 4 - - NW 1013,6 4,7 0,0
15.10.2018 23:00:00 11,3 10,9 - - 5 3 - - SSE 1013,4 8 0,0
15.10.2018 22:00:00 10,7 10,1 - - 4 2 - - N 1013,4 8 0,0
15.10.2018 21:00:00 11,0 10,3 - - 8 4 - - NW 1013,0 9 0,0
15.10.2018 20:00:00 11,0 10,3 - - 5 3 - - SSE 1012,4 18 0,0
15.10.2018 19:00:00 10,9 10,1 - - 11 6 - - E 1011,8 27 0,0
15.10.2018 18:00:00 11,1 10,0 - - 16 9 - - ENE 1011,8 27 0,0
15.10.2018 17:00:00 11,4 10,2 - - 15 8 - - NE 1011,5 35 0,0
15.10.2018 16:00:00 11,6 10,1 - - 15 8 - - NE 1011,0 40 0,0
15.10.2018 15:00:00 11,9 10,1 - - 15 8 - - NNE 1011,0 45 0,0
15.10.2018 14:00:00 11,9 9,6 - - 16 9 - - NE 1010,8 45 0,0
15.10.2018 13:00:00 11,5 9,6 - - 18 10 - - NE 1010,8 45 0,0
15.10.2018 12:00:00 10,9 9,2 - - 16 9 - - NE 1010,6 45 0,0
15.10.2018 11:00:00 10,6 9,1 - - 13 7 - - NNE 1010,5 27 0,0
15.10.2018 10:00:00 10,0 8,8 14,7 14,7 15 8 - - NNE 1010,3 30 0,0
15.10.2018 09:00:00 9,5 8,4 - - 13 7 - - N 1010,0 50 0,0
15.10.2018 08:00:00 8,8 7,9 - - 13 7 - - NNE 1009,3 21 0,0
15.10.2018 07:00:00 8,6 7,4 - - 13 7 - - N 1008,6 17 0,0
15.10.2018 06:00:00 8,5 7,3 - - 16 9 - - NNE 1008,3 24 0,0
15.10.2018 05:00:00 8,2 7,0 - - 16 9 - - N 1008,5 26 0,0
15.10.2018 04:00:00 8,2 6,9 - - 16 9 - - N 1008,4 30 0,0
15.10.2018 03:00:00 7,8 6,6 - - 16 9 - - N 1008,6 40 0,0
15.10.2018 02:00:00 7,8 6,4 - - 15 8 - - NNE 1008,9 50 0,0
15.10.2018 01:00:00 7,6 6,3 - - 11 6 - - N 1009,1 50 0,0
15.10.2018 00:00:00 7,9 6,2 - - 11 6 - - NNE 1009,0 45 0,0
14.10.2018 23:00:00 8,3 6,3 - - 11 6 - - NE 1009,4 50 0,0
14.10.2018 22:00:00 9,2 6,9 - - 15 8 - - NE 1009,1 50 0,0
14.10.2018 21:00:00 9,2 7,2 - - 11 6 - - NE 1008,8 50 0,0
14.10.2018 20:00:00 9,2 7,1 - - 11 6 - - NE 1009,2 50 0,0
14.10.2018 19:00:00 8,3 5,8 - - 9 5 - - NNE 1009,1 50 0,0
14.10.2018 18:00:00 11,5 7,0 - - 16 9 - - NE 1008,5 50 0,0
14.10.2018 17:00:00 12,0 7,0 - - 13 7 - - NNE 1008,2 50 0,0
14.10.2018 16:00:00 14,1 7,5 - - 13 7 - - N 1007,8 50 0,0
14.10.2018 15:00:00 13,7 7,8 - - 15 8 - - NE 1007,6 45 0,0
14.10.2018 14:00:00 13,8 7,9 - - 13 7 - - NNE 1007,5 45 0,0
14.10.2018 13:00:00 11,9 7,7 - - 18 10 - - NE 1007,7 45 0,0
14.10.2018 12:00:00 11,7 8,5 - - 18 10 - - NE 1007,8 24 0,2
14.10.2018 11:00:00 10,0 8,9 - - 22 12 - - NE 1007,7 40 0,4
14.10.2018 10:00:00 9,8 9,1 14,7 14,7 18 10 - - NE 1007,7 30 0,2
14.10.2018 09:00:00 9,7 9,5 - - 11 6 - - N 1007,6 13 2,2
14.10.2018 08:00:00 9,8 9,4 - - 13 7 - - N 1007,2 5 1,8
14.10.2018 07:00:00 9,6 9,1 - - 15 8 - - NNE 1006,2 12 1,2
14.10.2018 06:00:00 10,1 9,8 - - 13 7 - - N 1006,1 10 1,4
14.10.2018 05:00:00 10,1 9,9 - - 13 7 - - N 1006,6 5 2,6
14.10.2018 04:00:00 10,3 10,2 - - 16 9 - - N 1006,2 10 0,6
14.10.2018 03:00:00 10,8 10,6 - - 9 5 - - N 1007,0 5 0,0
14.10.2018 02:00:00 10,8 10,6 - - 11 6 - - NNW 1006,7 10 0,2
14.10.2018 01:00:00 10,9 10,7 - - 8 4 - - NW 1007,1 10 0,0
14.10.2018 00:00:00 11,1 10,9 - - 9 5 - - NW 1006,3 9 0,0
13.10.2018 23:00:00 11,4 11,0 - - 11 6 - - W 1006,3 13 0,2
13.10.2018 22:00:00 12,4 11,7 - - 22 12 - - WSW 1006,0 16 0,8
13.10.2018 21:00:00 13,6 12,7 - - 24 13 - - SSW 1005,4 12 0,0
13.10.2018 20:00:00 13,8 12,8 - - 24 13 - - SSW 1004,9 15 0,0
13.10.2018 19:00:00 14,3 13,3 - - 26 14 52 28 SSW 1004,1 11 0,2
13.10.2018 18:00:00 15,0 14,4 - - 37 20 57 31 SSW 1003,3 7 0,0
13.10.2018 17:00:00 15,2 14,7 - - 39 21 70 38 SSW 1002,4 6 0,2
13.10.2018 16:00:00 15,7 14,7 - - 46 25 83 45 S 1002,0 7 0,0
13.10.2018 15:00:00 16,3 14,9 - - 52 28 78 42 S 1001,7 8 0,0
13.10.2018 14:00:00 16,4 14,9 - - 54 29 80 43 S 1001,9 9 0,0
13.10.2018 13:00:00 16,9 15,1 - - 50 27 87 47 S 1002,4 12 -
13.10.2018 12:00:00 16,8 14,6 - - 54 29 85 46 S 1003,0 12 0,0
13.10.2018 11:00:00 17,1 15,2 - - 54 29 83 45 S 1003,1 11 0,0
13.10.2018 10:00:00 16,5 15,2 14,7 14,7 48 26 76 41 S 1003,6 11 0,0
13.10.2018 09:00:00 16,3 15,6 - - 52 28 76 41 S 1003,7 9 0,0
13.10.2018 08:00:00 15,9 15,9 - - 52 28 78 42 S 1003,6 7 1,4
13.10.2018 07:00:00 15,5 15,5 - - 42 23 67 36 S 1003,3 3,6 2,2
13.10.2018 06:00:00 15,5 15,5 - - 42 23 68 37 S 1003,6 2,1 3,0
13.10.2018 05:00:00 15,5 15,5 - - 42 23 70 38 S 1004,2 2,1 3,0
13.10.2018 04:00:00 15,5 15,5 - - 44 24 72 39 S 1004,6 0,6 1,2
13.10.2018 03:00:00 15,5 15,5 - - 37 20 68 37 S 1005,0 0,1 0,4
13.10.2018 02:00:00 15,3 15,3 - - 39 21 61 33 S 1005,3 0,1 1,0
13.10.2018 01:00:00 15,2 15,2 - - 41 22 72 39 S 1005,5 0,1 0,6
13.10.2018 00:00:00 15,3 15,3 - - 41 22 65 35 S 1005,9 0,1 0,6
12.10.2018 23:00:00 15,4 15,4 - - 42 23 67 36 S 1006,0 0,1 0,6
12.10.2018 22:00:00 15,3 15,3 - - 39 21 65 35 S 1005,9 0,2 0,2
12.10.2018 21:00:00 15,6 15,6 - - 42 23 72 39 S 1005,7 0,3 0,8
12.10.2018 20:00:00 15,5 15,5 - - 44 24 70 38 S 1005,6 1,9 0,6
12.10.2018 19:00:00 15,3 15,2 - - 46 25 68 37 S 1005,1 1,1 0,8
12.10.2018 18:00:00 15,1 15,0 - - 46 25 76 41 S 1004,5 2,9 1,0

tt = temperature
td = dewpoint
tt -20cm = temperature -20cm
tt -100cm = temperature -100cm
ff = wind speed
fx = gusts
dd = wind direction
ppp = reduced air pressure
vv = visibility
rr = precipitation

Next stations